• în Republica Moldova
  • Lista ţărilor
  • Pe 7 zile
  • Temperatura apei
  • Hartă satelitară
  • Meteo pe hartă
  • Widget-uri
  • user-avatar
    Intrare

    Meteo pe oră la Salzburg

    Astăzi, 28 Mai, Duminică

    Timp Temperatura Precipitaţii Vânt Presiune Umiditate
    00:00 +7°C° 0 mm 1 m/s 629 mmHg 94%
    01:00 +6°C° 0 mm 1 m/s 629 mmHg 94%
    02:00 +6°C° 0 mm 1 m/s 629 mmHg 93%
    03:00 +5°C° 0 mm 1 m/s 629 mmHg 92%
    04:00 +5°C° 0 mm 1 m/s 629 mmHg 92%
    05:00 +7°C° 0 mm 1 m/s 630 mmHg 88%
    06:00 +9°C° 0 mm 1 m/s 631 mmHg 84%
    07:00 +12°C° 0 mm 1 m/s 632 mmHg 75%
    08:00 +14°C° 0 mm 1 m/s 632 mmHg 65%
    09:00 +15°C° 0 mm 0 m/s 633 mmHg 55%
    10:00 +17°C° 0 mm 0 m/s 634 mmHg 45%
    11:00 +20°C° 0 mm 1 m/s 634 mmHg 43%
    12:00 +21°C° 0 mm 1 m/s 634 mmHg 41%
    13:00 +21°C° 0 mm 1 m/s 634 mmHg 39%
    14:00 +21°C° 0 mm 1 m/s 634 mmHg 42%
    15:00 +21°C° 0 mm 1 m/s 633 mmHg 44%
    16:00 +20°C° 0 mm 1 m/s 633 mmHg 46%
    17:00 +18°C° 0 mm 1 m/s 632 mmHg 58%
    18:00 +15°C° 0 mm 1 m/s 631 mmHg 70%
    19:00 +13°C° 0 mm 1 m/s 630 mmHg 81%
    20:00 +11°C° 0 mm 1 m/s 630 mmHg 84%
    21:00 +9°C° 0 mm 1 m/s 629 mmHg 87%
    22:00 +7°C° 0 mm 1 m/s 629 mmHg 90%
    23:00 +7°C° 0 mm 1 m/s 629 mmHg 89%

    Mâine, 29 Mai, Luni

    Timp Temperatura Precipitaţii Vânt Presiune Umiditate
    00:00 +7°C° 0 mm 1 m/s 628 mmHg 88%
    01:00 +6°C° 0 mm 2 m/s 628 mmHg 87%
    02:00 +6°C° 0 mm 2 m/s 628 mmHg 86%
    03:00 +6°C° 0 mm 2 m/s 628 mmHg 85%
    04:00 +5°C° 0 mm 2 m/s 627 mmHg 84%
    05:00 +9°C° 0 mm 1 m/s 628 mmHg 77%
    06:00 +11°C° 0 mm 1 m/s 629 mmHg 71%
    07:00 +13°C° 0 mm 1 m/s 630 mmHg 65%
    08:00 +16°C° 0 mm 1 m/s 630 mmHg 57%
    09:00 +17°C° 0 mm 0 m/s 631 mmHg 49%
    10:00 +19°C° 0 mm 0 m/s 632 mmHg 42%
    11:00 +21°C° 0 mm 1 m/s 631 mmHg 41%
    12:00 +22°C° 0 mm 1 m/s 631 mmHg 41%
    13:00 +23°C° 0 mm 1 m/s 631 mmHg 41%
    14:00 +22°C° 0,1 mm 1 m/s 631 mmHg 44%
    15:00 +22°C° 0,1 mm 1 m/s 630 mmHg 48%
    16:00 +20°C° 0,1 mm 2 m/s 630 mmHg 52%
    17:00 +19°C° 0,3 mm 1 m/s 629 mmHg 63%
    18:00 +18°C° 0,3 mm 1 m/s 628 mmHg 73%
    19:00 +15°C° 0,3 mm 1 m/s 628 mmHg 84%
    20:00 +12°C° 0,2 mm 1 m/s 627 mmHg 87%
    21:00 +10°C° 0,2 mm 1 m/s 626 mmHg 90%
    22:00 +7°C° 0,2 mm 1 m/s 625 mmHg 93%
    23:00 +8°C° 0 mm 1 m/s 626 mmHg 92%

    Poimâine, 30 Mai, Marţi

    Timp Temperatura Precipitaţii Vânt Presiune Umiditate
    00:00 +8°C° 0 mm 1 m/s 626 mmHg 91%
    01:00 +8°C° 0 mm 1 m/s 626 mmHg 90%
    02:00 +8°C° 0 mm 1 m/s 626 mmHg 90%
    03:00 +8°C° 0 mm 1 m/s 626 mmHg 91%
    04:00 +7°C° 0 mm 1 m/s 625 mmHg 91%
    05:00 +10°C° 0 mm 1 m/s 626 mmHg 88%
    06:00 +12°C° 0 mm 1 m/s 628 mmHg 84%
    07:00 +14°C° 0 mm 1 m/s 629 mmHg 80%
    08:00 +16°C° 0 mm 1 m/s 629 mmHg 73%
    09:00 +18°C° 0 mm 1 m/s 630 mmHg 65%
    10:00 +20°C° 0 mm 1 m/s 630 mmHg 58%
    11:00 +20°C° 0,3 mm 1 m/s 630 mmHg 60%
    12:00 +20°C° 0,3 mm 1 m/s 630 mmHg 61%
    13:00 +19°C° 0,3 mm 2 m/s 630 mmHg 63%
    14:00 +20°C° 1,1 mm 1 m/s 630 mmHg 67%
    15:00 +19°C° 1,1 mm 1 m/s 630 mmHg 71%
    16:00 +19°C° 1,1 mm 1 m/s 629 mmHg 75%
    17:00 +18°C° 1,3 mm 1 m/s 629 mmHg 81%
    18:00 +15°C° 1,3 mm 1 m/s 629 mmHg 87%
    19:00 +14°C° 1,3 mm 1 m/s 628 mmHg 93%
    20:00 +13°C° 1,5 mm 1 m/s 628 mmHg 94%
    21:00 +13°C° 1,5 mm 1 m/s 628 mmHg 96%
    22:00 +12°C° 1,5 mm 1 m/s 629 mmHg 97%
    23:00 +12°C° 1,4 mm 1 m/s 629 mmHg 97%

    31 Mai, Miercuri

    Timp Temperatura Precipitaţii Vânt Presiune Umiditate
    00:00 +12°C° 1,4 mm 1 m/s 629 mmHg 97%
    01:00 +11°C° 1,4 mm 1 m/s 628 mmHg 97%
    02:00 +11°C° 0,5 mm 1 m/s 628 mmHg 97%
    03:00 +10°C° 0,5 mm 1 m/s 628 mmHg 97%
    04:00 +10°C° 0,5 mm 1 m/s 628 mmHg 97%
    05:00 +11°C° 0,1 mm 1 m/s 628 mmHg 95%
    06:00 +12°C° 0,1 mm 1 m/s 629 mmHg 94%
    07:00 +12°C° 0,1 mm 1 m/s 629 mmHg 92%
    08:00 +13°C° 0,2 mm 1 m/s 630 mmHg 87%
    09:00 +15°C° 0,2 mm 1 m/s 630 mmHg 83%
    10:00 +16°C° 0,2 mm 1 m/s 630 mmHg 79%
    11:00 +16°C° 0,8 mm 1 m/s 630 mmHg 79%
    12:00 +16°C° 0,8 mm 1 m/s 630 mmHg 79%
    13:00 +16°C° 0,8 mm 1 m/s 630 mmHg 79%
    14:00 +16°C° 1 mm 1 m/s 630 mmHg 81%
    15:00 +16°C° 1 mm 1 m/s 629 mmHg 82%
    16:00 +15°C° 1 mm 1 m/s 629 mmHg 84%
    17:00 +14°C° 0,7 mm 1 m/s 629 mmHg 87%
    18:00 +14°C° 0,7 mm 1 m/s 629 mmHg 91%
    19:00 +13°C° 0,7 mm 1 m/s 628 mmHg 95%
    20:00 +12°C° 0,7 mm 1 m/s 628 mmHg 95%
    21:00 +11°C° 0,7 mm 1 m/s 628 mmHg 96%
    22:00 +11°C° 0,7 mm 1 m/s 628 mmHg 97%
    23:00 +10°C° 0,5 mm 1 m/s 628 mmHg 97%

    1 Iunie, Joi

    Timp Temperatura Precipitaţii Vânt Presiune Umiditate
    00:00 +10°C° 0,5 mm 1 m/s 628 mmHg 98%
    01:00 +10°C° 0,5 mm 1 m/s 627 mmHg 98%
    02:00 +10°C° 0,4 mm 1 m/s 627 mmHg 98%
    03:00 +9°C° 0,4 mm 1 m/s 627 mmHg 98%
    04:00 +9°C° 0,4 mm 1 m/s 627 mmHg 98%
    05:00 +9°C° 0,4 mm 1 m/s 627 mmHg 98%
    06:00 +10°C° 0,4 mm 1 m/s 627 mmHg 97%
    07:00 +10°C° 0,4 mm 1 m/s 628 mmHg 97%
    08:00 +10°C° 0,5 mm 1 m/s 628 mmHg 95%
    09:00 +10°C° 0,5 mm 1 m/s 628 mmHg 94%
    10:00 +11°C° 0,5 mm 1 m/s 628 mmHg 93%
    11:00 +11°C° 0,7 mm 1 m/s 628 mmHg 92%
    12:00 +11°C° 0,7 mm 1 m/s 628 mmHg 91%
    13:00 +11°C° 0,7 mm 1 m/s 628 mmHg 89%
    14:00 +11°C° 0,7 mm 1 m/s 628 mmHg 88%
    15:00 +11°C° 0,7 mm 1 m/s 628 mmHg 87%
    16:00 +11°C° 0,7 mm 1 m/s 628 mmHg 87%
    17:00 +11°C° 0,2 mm 1 m/s 628 mmHg 89%
    18:00 +11°C° 0,2 mm 1 m/s 628 mmHg 91%
    19:00 +10°C° 0,2 mm 1 m/s 628 mmHg 93%
    20:00 +9°C° 0,1 mm 1 m/s 628 mmHg 94%
    21:00 +7°C° 0,1 mm 1 m/s 627 mmHg 95%
    22:00 +5°C° 0,1 mm 0 m/s 627 mmHg 96%
    23:00 +5°C° 0 mm 0 m/s 627 mmHg 97%

    2 Iunie, Vineri

    Timp Temperatura Precipitaţii Vânt Presiune Umiditate
    00:00 +4°C° 0 mm 0 m/s 626 mmHg 97%
    01:00 +4°C° 0 mm 0 m/s 626 mmHg 97%
    02:00 +3°C° 0 mm 0 m/s 626 mmHg 98%
    03:00 +3°C° 0 mm 0 m/s 625 mmHg 98%
    04:00 +2°C° 0 mm 0 m/s 625 mmHg 98%
    05:00 +4°C° 0 mm 0 m/s 626 mmHg 95%
    06:00 +6°C° 0 mm 0 m/s 627 mmHg 91%
    07:00 +8°C° 0 mm 0 m/s 628 mmHg 88%
    08:00 +11°C° 0 mm 1 m/s 628 mmHg 81%
    09:00 +12°C° 0 mm 1 m/s 629 mmHg 74%
    10:00 +14°C° 0 mm 1 m/s 629 mmHg 67%
    11:00 +14°C° 0,1 mm 1 m/s 629 mmHg 65%
    12:00 +15°C° 0,1 mm 1 m/s 629 mmHg 63%
    13:00 +15°C° 0,1 mm 2 m/s 629 mmHg 61%
    14:00 +15°C° 0,3 mm 2 m/s 629 mmHg 64%
    15:00 +15°C° 0,3 mm 2 m/s 629 mmHg 66%
    16:00 +14°C° 0,3 mm 2 m/s 629 mmHg 69%
    17:00 +13°C° 0,2 mm 1 m/s 628 mmHg 75%
    18:00 +12°C° 0,2 mm 1 m/s 628 mmHg 82%
    19:00 +11°C° 0,2 mm 1 m/s 628 mmHg 88%
    20:00 +8°C° 0 mm 1 m/s 627 mmHg 91%
    21:00 +6°C° 0 mm 1 m/s 626 mmHg 94%
    22:00 +2°C° 0 mm 0 m/s 625 mmHg 97%
    23:00 +4°C° 0 mm 1 m/s 625 mmHg 97%
    Arată mai mult